Tracking 19831 objects as of 23-Aug-2019
HD Live streaming from Space Station
objects crossing your sky now

FENGYUN 1C DEB

Track FENGYUN 1C DEB now!
10-day predictions


NORAD ID: 32241
Int'l Code: 1999-025CWP
Perigee: 729.9 km
Apogee: 987.8 km
Inclination: 99.0 °
Period: 102.0 minutes
Semi major axis: 7229 km
RCS: 0.0127 m2 (small)
Launch date: May 10, 1999
Source: People's Republic of China (PRC)
Launch site: Taiyaun Space Center, China (TSC)

Note: This is SATELLITE DEBRIS
aabbcc
Your satellite tracking list
Your tracking list is empty




NASA's NSSDC Master Catalog

Two Line Element Set (TLE):
1 32241U 99025CWP 19232.64739458 +.00000346 +00000-0 +18404-3 0  9993
2 32241 098.9923 184.4030 0178366 292.0264 066.2044 14.12236610611589
Source of the keplerian elements: AFSPC